x

Portland 12 Nm Southeast Of Portland,me (44007) Wave Buoy

5:50pm - Sun 28th Aug 2016 All times are EDT. -4 hours from GMT.

  • Sig Wave height 2.0ft
  • Swell Direction
  • Peak Period 8s
  • Average Period 4s
  • Wind
    13mph, 16mph gusts
  • Sea Temp 63°f
  • Air Temp 67°f
  • Sea Pressure 1021.3mb
  • Portland 12 Nm Southeast Of Portland,me
  • Portland 12 Nm Southeast Of Portland,me

More Historic Weather Station data

Upgrade to MSW Pro to gain access to the past 30 days of data for over 8000 Wavebouys and Weather Stations around the globe.

Join Pro

Comparision Forecast

View Surf forecast
   
Sun 08/28 5:50pm 2ft 8s 4s 13 16 mph 1021.3mb 63f 67f
4:50pm 1.6ft 8s 4s 16
mph
1022mb 64f 68f
3:50pm 1.3ft 8s 4s 13 16 mph 1022.8mb 64f 68f
2:50pm 1ft 8s 5s 13 16 mph 1023.4mb 64f 68f
1:50pm 1.3ft 8s 5s 9 11 mph 1024.2mb 65f 67f
12:50pm 1ft 9s 6s 9 11 mph 1024.7mb 65f 68f
11:50am 1ft 9s 6s 7 9 mph 1025.2mb 65f 68f
10:50am 1.3ft 9s 6s 7
mph
1025.7mb 65f 67f
9:50am 1ft 9s 6s 7
mph
1025.7mb 65f 67f
8:50am 1.3ft 9s 6s 4
mph
1025.6mb 64f 67f
7:50am 1.3ft 8s 7s 2 4 mph 1025.5mb 63f 66f
6:50am 1.3ft 8s 6s 2
mph
1025.6mb 63f 65f
5:50am 1.3ft 10s 7s 4
mph
1025mb 63f 65f
3:50am 1.3ft 8s 7s 4
mph
1024.5mb 64f 65f
2:50am 1.3ft 9s 7s 4
mph
1024.7mb 64f 64f
1:50am 1ft 8s 7s 2
mph
1024.8mb 64f 64f
12:50am 1ft 9s 7s  -  mph 1025.1mb 63f 66f
Sat 08/27 10:50pm 1ft 9s 6s 2 4 mph 1024.5mb 64f 67f
9:50pm 1ft 10s 6s 2 4 mph 1024.1mb 64f 66f
8:50pm 1ft 8s 6s 4
mph
1023.4mb 65f 67f
7:50pm 1ft 7s 6s 4
mph
1022.7mb 66f 68f
6:50pm 1.3ft 6s 6s 4
mph
1022.1mb 67f 69f
5:50pm 1ft 8s 6s 4 7 mph 1021.8mb 67f 69f
4:50pm 1ft 9s 6s 7 9 mph 1021.8mb 67f 69f
3:50pm 1ft 7s 5s 7 9 mph 1021.4mb 67f 70f
2:50pm 1ft 8s 6s 9 11 mph 1021.4mb 66f 70f
1:50pm 1ft 8s 6s 7 9 mph 1021.5mb 66f 70f
12:50pm 1ft 9s 6s 2 4 mph 1021.5mb 65f 69f
11:50am 1ft 8s 5s 7
mph
1021.7mb 65f 69f
10:50am 1ft 9s 5s 4 7 mph 1021.8mb 64f 67f
9:50am 1ft 9s 5s 9
mph
1021.6mb 64f 65f
8:50am 1ft 8s 5s 4 7 mph 1021.1mb 63f 66f
7:50am 1.3ft 7s 5s 7
mph
1020.5mb 63f 65f
6:50am 1.3ft 7s 5s 7 9 mph 1019.9mb 63f 65f
5:50am 1.3ft 8s 5s 9
mph
1019mb 63f 65f
4:50am 1.3ft 7s 6s 7 9 mph 1018.5mb 63f 65f
3:50am 1.3ft 8s 5s 9
mph
1018.2mb 63f 67f
2:50am 1.3ft 8s 5s 4
mph
1018.1mb 63f 67f
1:50am 1.3ft 8s 5s 4
mph
1017.7mb 64f 68f
12:50am 1.3ft 5s 5s 4 7 mph 1017.3mb 64f 67f
Fri 08/26 11:50pm 1.3ft 5s 5s 7 9 mph 1016.8mb 64f 69f
10:50pm 1.3ft 8s 5s 7 9 mph 1016.2mb 64f 72f
9:50pm 1.6ft 6s 5s 11 13 mph 1015.3mb 64f 74f
8:50pm 1.6ft 5s 4s 9 11 mph 1014.5mb 64f 70f
7:50pm 1.6ft 6s 4s 13
mph
1013.2mb 65f 71f
6:50pm 1.6ft 5s 5s 9 11 mph 1012.7mb 65f 69f
5:50pm 2ft 8s 5s 9 11 mph 1012.4mb 65f 69f
4:50pm 2ft 5s 5s 9
mph
1012.6mb 65f 69f
3:50pm 2ft 5s 4s 7
mph
1012.7mb 64f 69f
2:50pm 2ft 8s 5s 7
mph
1012.7mb 64f 68f
1:50pm 2ft 8s 4s 7
mph
1013.2mb 63f 66f
12:50pm 2ft 5s 4s 7 9 mph 1012.8mb 63f 66f
11:50am 2ft 5s 5s 4 7 mph 1013.2mb 63f 69f
10:50am 2.5ft 6s 5s 7
mph
1013.9mb 63f 67f
9:50am 2.5ft 6s 5s 11 13 mph 1013.6mb 63f 66f
8:50am 2.5ft 6s 5s 4 9 mph 1013.2mb 63f 66f
7:50am 2.5ft 5s 4s 7
mph
1013.1mb 63f 67f
6:50am 2.5ft 5s 4s 7 9 mph 1012.8mb 63f 66f
5:50am 3ft 5s 4s 11 13 mph 1012.8mb 63f 66f
4:50am 3.5ft 6s 4s 13
mph
1012.3mb 63f 66f
3:50am 3.5ft 5s 4s 13 16 mph 1012.3mb 63f 66f
2:50am 3.5ft 6s 4s 16 18 mph 1012.6mb 63f 67f
1:50am 3.5ft 6s 5s 11 13 mph 1012.9mb 63f 67f
12:50am 3.5ft 6s 5s 11
mph
1013.3mb 63f 66f
Thu 08/25 11:50pm 3.5ft 6s 5s 13
mph
1013.5mb 63f 67f
10:50pm 3.5ft 6s 5s 9
mph
1014.1mb 63f 66f
9:50pm 3.5ft 6s 5s 11
mph
1014mb 63f 66f
8:50pm 3.5ft 5s 5s 13 16 mph 1013.8mb 63f 67f
7:50pm 3.5ft 5s 4s 16 18 mph 1013.4mb 63f 68f
6:50pm 3.5ft 5s 4s 18 20 mph 1013.1mb 63f 69f
5:50pm 3.5ft 5s 4s 18 20 mph 1013.2mb 64f 68f
4:50pm 3.5ft 5s 4s 18 20 mph 1013.1mb 64f 69f
3:50pm 3.5ft 5s 4s 18 20 mph 1013.3mb 64f 69f
2:50pm 3.5ft 5s 4s 20 22 mph 1014.1mb 64f 69f
1:50pm 4ft 5s 4s 18 20 mph 1015mb 64f 68f
12:50pm 3.5ft 5s 4s 20 22 mph 1015.5mb 64f 68f
11:50am 3.5ft 5s 4s 18 20 mph 1015.9mb 64f 67f
10:50am 3ft 5s 4s 18 20 mph 1016.4mb 64f 67f
9:50am 2.5ft 5s 4s 18 22 mph 1016.7mb 64f 66f
8:50am 2.5ft 5s 4s 20 25 mph 1016.6mb 64f 66f
7:50am 2.5ft 5s 4s 20 22 mph 1016.5mb 64f 66f
6:50am 2.5ft 5s 4s 18 20 mph 1017mb 64f 66f
5:50am 2ft 4s 4s 16 18 mph 1017.3mb 64f 66f
4:50am 1.6ft 4s 4s 11 13 mph 1017.3mb 64f 66f
3:50am 2ft 4s 4s 13
mph
1017.5mb 64f 67f
2:50am 1.6ft 4s 4s 13 16 mph 1017.3mb 64f 67f
1:50am 1.6ft 4s 4s 11
mph
1018.1mb 64f 67f
12:50am 1.6ft 4s 4s 9
mph
1019.1mb 64f 66f
Wed 08/24 10:50pm 2ft 4s 4s 9
mph
1019.6mb 65f 67f